Location: Ravensburg
(47.7866°N, 9.6124°E)
Time: 03:26:49
(UTC+02:00)

CAS-6 - Pass Details

Date: 15 March 2026
Orbit: 601 x 618 km, 97.8° (Epoch: 14 April)

Event Time Altitude Azimuth Distance (km) Brightness Sun altitude
Exits shadow 20:45:34 10° 30° (NNE) 1,936 ? -23.4°
Drops below altitude 10° 20:45:37 10° 29° (NNE) 1,949 ? -23.5°
Sets 20:48:47 0° 4° (N) 2,867 ? -23.9°
